Regional Weather Roundup
Issued by NWS Grand Forks, ND

Home | Current Version | Previous Version | Graphics & Text | Print | Product List | Glossary On
Versions: 1 2 3 4 5 6 7 8 9 10 11 12 13 14 15 16 17 18 19 20 21 22 23 24 25 26 27 28 29 30 31 32 33 34 35 36 37 38 39 40 41 42 43 44 45 46 47 48 49 50
000
ASUS43 KFGF 280931
RWRFGF
PRAIRIE TO PINES  WEATHER ROUNDUP
NATIONAL WEATHER SERVICE EASTERN NORTH DAKOTA/GRAND FORKS ND
400 AM CDT MON JUL 28 2014

 **SATELLITE DATA USED TO AUGMENT SKY COVER AT AUTOMATED STATIONS**
 *****  WEATHER ACROSS EASTERN NORTH DAKOTA  *****

CITY           SKY/WX    TMP DP  RH WIND       PRES   REMARKS
GRAND FORKS    CLOUDY    60  55  83 NW5         N/A
GRAND FRKS AFB CLOUDY    60  57  92 NW7       30.25S
GRAND FRKS NWS   N/A     59 N/A N/A NW3         N/A
DEVILS LAKE    CLEAR     52  46  82 NW7       30.27S
FARGO          CLOUDY    61  55  81 NW7       30.23R
WAHPETON ARPT  CLOUDY    59  54  82 N7        30.24R
$$

 ***** WEATHER ACROSS CENTRAL AND WESTERN NORTH DAKOTA  *****

CITY           SKY/WX    TMP DP  RH WIND       PRES   REMARKS
BISMARCK       CLEAR     48  47  96 W3        30.33R
MINOT          CLEAR     53  49  86 S3        30.30S
JAMESTOWN      CLOUDY    57  54  89 NW7       30.28S
MINOT AFB      PTCLDY    50  50  99 CALM      30.30R
GARRISON         N/A     49  48  97 CALM      30.32R
WILLISTON      CLEAR     52  49  89 CALM      30.32R
DICKINSON      CLEAR     50  47  89 S7        30.32F
HETTINGER      FOG       46  44  93 CALM      30.36S VSB 3/4
$$

 *****  OTHER AIRPORT OBSERVATIONS IN OUR AREA  *****

CITY           SKY/WX    TMP DP  RH WIND       PRES   REMARKS
WALHALLA         N/A     54  54 100 CALM        N/A
GRAFTON AIRPOR CLOUDY    57  54  88 NW9       30.24S
VALLEY CITY AR CLOUDY    57  57 100 NW7       30.28R
CANDO          FAIR      48  46  93 W5        30.30S
CAVALIER APRT  CLOUDY    55  54  94 NW6       30.25S
GWINNER        CLOUDY    61  57  88 NW7       30.27S
SHEYENNE NWR     N/A     60  56  85 NW2       29.95
ROLLA          FAIR      46  46 100 NW7       30.32R
 ***** THE ABOVE OBSERVATIONS ARE NON NWS ARE NOT QUALITY
       CONTROLLED AND MAY MIS-REPORT RAIN FOR SNOW...
$$

  *****  WEATHER ACROSS NORTHERN MINNESOTA  *****

CITY           SKY/WX    TMP DP  RH WIND       PRES   REMARKS
FLAG ISLAND    MOCLDY    59  55  88 NW8       30.19S
WARROAD        MOCLDY    57  54  88 NW7       30.22R
ROSEAU         MOCLDY    57  54  88 W3        30.22R
HALLOCK        CLOUDY    57  54  88 CALM      30.24R
THF RVR FALLS  CLOUDY    61  55  82 NW6       30.23S
BAUDETTE       CLEAR     56  54  93 VRB3      30.20R
WASKISH        MOCLDY    57  55  94 CALM      30.20R
CROOKSTON      CLOUDY    61  55  82 N6        30.24S
$$
  *****  WEATHER ACROSS CENTRAL AND WEST MINNESOTA  *****

CITY           SKY/WX    TMP DP  RH WIND       PRES   REMARKS
FOSSTON        CLOUDY    57  54  88 NW3       30.23R
BEMIDJI        CLOUDY    58  55  89 NW5       30.21S
PARK RAPIDS    CLOUDY    60  54  80 N9        30.20S
ELBOW LAKE     CLOUDY    60  58  91 N7        30.22R
WADENA         CLOUDY    59  55  88 N3        30.20S
DETROIT LAKES  CLOUDY    59  57  94 NW6       30.24R
MOORHEAD       CLOUDY    61  61 100 N5        30.24S
FERGUS FALLS   CLOUDY    61  57  88 NW7       30.23R
MORRIS MN      CLOUDY    61  57  88 NW6       30.21R
STAPLES        CLOUDY    59  55  88 N5        30.20R
$$
  *****  WEATHER ELSEWHERE ACROSS MINNESOTA  *****

CITY           SKY/WX    TMP DP  RH WIND       PRES   REMARKS
DULUTH         CLOUDY    57  53  86 N7        30.15R
INTRNTL FALLS  PTCLDY    47  45  93 CALM      30.17R
ELY            CLOUDY    54  52  94 CALM      30.15R
CLOQUET        CLOUDY    55  54  94 NW5       30.16R
WHEATON        CLOUDY    57  55  94 NW8       30.25R
BRAINERD       CLOUDY    62  56  80 N7        30.18S
HIBBING        CLOUDY    55  52  89 NW3       30.16S
ALEXANDRIA     CLOUDY    62  59  90 N6        30.22R
SAINT CLOUD    CLOUDY    63  58  83 NW5       30.16S
MINNEAPOLIS    CLOUDY    64  57  78 NW7       30.15S
$$

  *****  WEATHER ACROSS SOUTH DAKOTA  *****

CITY           SKY/WX    TMP DP  RH WIND       PRES   REMARKS
SIOUX FALLS    PTCLDY    56  53  90 W8        30.24R
BROOKINGS      NOT AVBL
WATERTOWN      CLOUDY    59  56  89 N9        30.25S
HURON          CLEAR     50  49  96 NW6       30.26S
SISSETON         N/A     60  58  92 NW9       30.24R
ABERDEEN       CLOUDY    55  53  93 NW8       30.28R
MITCHELL       CLEAR     55  53  93 NW7       30.27S
PIERRE         CLEAR     54  52  93 W3        30.31R
MOBRIDGE       CLEAR     50  49  96 CALM      30.30R
RAPID CITY     CLEAR     53  49  86 CALM      30.37R
$$

  *****  SOME WEATHER IN NEARBY STATES *****

CITY           SKY/WX    TMP DP  RH WIND       PRES   REMARKS
GLASGOW MT     CLEAR     58  51  78 E10       30.26S
GREAT FALLS MT CLEAR     59  41  51 SE5       30.21S
CHEYENNE WY    CLEAR     60  52  74 SW3       30.41R
SCOTTSBLUFF NE CLEAR     62  50  64 E12       30.32F
OMAHA NE       CLEAR     61  55  81 N8        30.21R
DES MOINES IA  MOCLDY    64  58  80 N10       30.13S
DAVENPORT IA   MOCLDY    63  57  81 N16       30.04R
CHICAGO IL     CLEAR     62  49  62 N12       29.95R
EAU CLAIRE WI  PTCLDY    57  54  89 CALM      30.12R
LA CROSSE WI   CLEAR     56  52  86 N8        30.11R
$$

  *****  SOME NATIONAL WEATHER *****

CITY           SKY/WX    TMP DP  RH WIND       PRES   REMARKS
LA GUARDIA NY  CLOUDY    71  66  84 SW5       29.54F
RALEIGH NC     CLOUDY    78  60  53 W9        29.75S
ATLANTA GA     CLOUDY    79  72  79 W7        29.94S
NEW ORLEANS LA PTCLDY    80  76  87 W8        30.03R
OKLAHOMA CITY  MOCLDY    72  64  76 CALM      30.15R
ALBUQUERQUE NM PTCLDY    71  56  58 N8        30.34S
SALT LAKE CITY CLOUDY    82  46  28 CALM      30.12F
LOS ANGELES CA CLOUDY    69  65  86 W6        30.02F
BOISE ID       PTCLDY    79  36  21 SE10      30.01S
SEATTLE WA     CLEAR     66  31  27 NE6       30.11F
$$

*** WEATHER ACROSS MANITOBA...SASKATCHEWAN AND ONTARIO ***
                ***ONTARIO***

CITY           SKY/WX    TMP DP  RH WIND       PRES   REMARKS
GERALDTON      PTCLDY    50  48  93 NW3       30.02F
THUNDER BAY    PTCLDY    52  50  93 SW6       30.07R
SIOUX LOOKOUT  PTCLDY    50  50 100 NW3       30.14R
TORONTO        LGT RAIN  63  59  88 NE15G21   29.63R
BIG TROUT LK   PTCLDY    59  52  77 NW7       30.04S
PICKLE LAKE    NOT AVBL
DRYDEN         CLEAR     55  52  88 NW7       30.16R
KENORA         PTCLDY    57  54  88 NW3       30.20S
$$
                *** MANITOBA***

CITY           SKY/WX    TMP DP  RH WIND       PRES   REMARKS
BRANDON        CLEAR     48  46  93 NW8       30.30R
DAUPHIN        CLEAR     50  48  93 W7        30.28R
ISLAND LAKE    MOCLDY    63  55  77 W5        30.15S
PILOT MOUND      N/A     46  46 100 W3          N/A
THE PAS        CLEAR     52  50  93 CALM      30.26S
THOMPSON       PTCLDY    46  45  93 NW3       30.19S
WINNIPEG       CLEAR     48  48 100 W6        30.25R
LYNN LAKE      CLEAR     52  46  82 W7        30.23S
CHURCHILL      PTCLDY    59  54  82 W7        30.03S
GILLAM         PTCLDY    64  55  72 W8        30.11S
$$
                ***SASKATCHEWAN***

CITY           SKY/WX    TMP DP  RH WIND       PRES   REMARKS
ESTEVAN        CLOUDY    57  55  94 E2        30.32R
KINDERSLEY     PTCLDY    54  52  94 S5        30.26S
LLOYDMINSTER   CLEAR     57  54  88 SW8       30.24S
PRINCE ALBERT  PTCLDY    54  52  94 CALM      30.28R
REGINA         PTCLDY    55  54  94 SE7       30.30S
YORKTON        CLEAR     50  48  93 CALM      30.30S
N. BATTLEFORD    N/A     55  54  94 SE7       30.27R
LA RONGE       CLEAR     52  48  87 SW3       30.25S
SASKATOON      PTCLDY    61  59  94 SE6       30.28S
SWIFT CURRENT  CLEAR     52  48  87 S7        30.27S
$$
NOTE: THESE ARE AUTOMATED STATIONS WITH LIMITED QUALITY CONTROL
      "FAIR" INDICATES FEW OR NO CLOUDS BELOW 12,000 FEET WITH NO
      SIGNIFICANT WEATHER AND/OR OBSTRUCTIONS TO VISIBILITY.
      SKY/WX - SKY CONDITION AND SIGNIFICANT WEATHER.
      TMP - AIR TEMPERATURE.    DP   - DEWPOINT TEMPERATURE.
      RH  - RELATIVE HUMIDITY.  PRES - PRESSURE.
      HX  - HEAT INDEX.         WCI  - WIND CHILL INDEX.
$


USA.gov is the U.S. government's official web portal to all federal, state and local government web resources and services.